Time,TemperatureF,DewpointF,PressureIn,WindDirection,WindDirectionDegrees,WindSpeedMPH,WindSpeedGustMPH,Humidity,HourlyPrecipIn,Conditions,Clouds,dailyrainin,SoftwareType,DateUTC
2013-06-12 00:02:00,79.7,68.2,29.73,South,180,0.0,0.0,68,0.00,,,0.00,WUHU21623XXSP,2013-06-12 05:02:00,
2013-06-12 00:07:00,79.5,68.0,29.73,South,180,0.0,0.0,68,0.00,,,0.00,WUHU21623XXSP,2013-06-12 05:07:00,
2013-06-12 00:12:00,79.3,68.3,29.73,SSW,202,0.0,2.2,69,0.00,,,0.00,WUHU21623XXSP,2013-06-12 05:12:00,
2013-06-12 00:17:00,79.2,68.5,29.73,SSW,202,0.0,2.2,70,0.00,,,0.00,WUHU21623XXSP,2013-06-12 05:17:00,
2013-06-12 00:22:00,79.2,68.5,29.73,South,180,0.0,0.0,70,0.00,,,0.00,WUHU21623XXSP,2013-06-12 05:22:00,
2013-06-12 00:27:00,79.0,68.4,29.73,SSE,157,0.0,0.0,70,0.00,,,0.00,WUHU21623XXSP,2013-06-12 05:27:00,
2013-06-12 00:32:00,79.0,68.8,29.73,SSE,157,0.0,0.0,71,0.00,,,0.00,WUHU21623XXSP,2013-06-12 05:32:00,
2013-06-12 00:37:00,78.8,68.6,29.73,SSW,202,0.0,0.0,71,0.00,,,0.00,WUHU21623XXSP,2013-06-12 05:37:00,
2013-06-12 00:42:00,78.8,68.6,29.73,SSW,202,0.0,0.0,71,0.00,,,0.00,WUHU21623XXSP,2013-06-12 05:42:00,
2013-06-12 00:47:00,79.0,68.8,29.73,SSW,202,0.0,0.0,71,0.00,,,0.00,WUHU21623XXSP,2013-06-12 05:47:00,
2013-06-12 00:52:00,79.0,68.8,29.73,South,180,0.0,0.0,71,0.00,,,0.00,WUHU21623XXSP,2013-06-12 05:52:00,
2013-06-12 00:57:00,79.0,68.8,29.73,SW,225,1.1,1.1,71,0.00,,,0.00,WUHU21623XXSP,2013-06-12 05:57:00,
2013-06-12 01:02:00,79.0,68.8,29.73,SSW,202,0.0,2.5,71,0.00,,,0.00,WUHU21623XXSP,2013-06-12 06:02:00,
2013-06-12 01:07:00,79.0,69.2,29.73,South,180,0.9,2.5,72,0.00,,,0.00,WUHU21623XXSP,2013-06-12 06:07:00,
2013-06-12 01:12:00,79.0,69.2,29.73,SSW,202,1.8,2.7,72,0.00,,,0.00,WUHU21623XXSP,2013-06-12 06:12:00,
2013-06-12 01:17:00,79.0,69.2,29.73,SSE,157,0.0,2.7,72,0.00,,,0.00,WUHU21623XXSP,2013-06-12 06:17:00,
2013-06-12 01:22:00,79.0,69.2,29.73,SSW,202,0.0,1.8,72,0.00,,,0.00,WUHU21623XXSP,2013-06-12 06:22:00,
2013-06-12 01:27:00,78.8,69.2,29.74,SSE,157,0.0,0.0,72,0.00,,,0.00,WUHU21623XXSP,2013-06-12 06:27:00,
2013-06-12 01:32:00,78.6,68.8,29.74,SE,135,0.0,0.0,72,0.00,,,0.00,WUHU21623XXSP,2013-06-12 06:32:00,
2013-06-12 01:37:00,78.6,68.8,29.74,SE,135,0.9,0.9,72,0.00,,,0.00,WUHU21623XXSP,2013-06-12 06:37:00,
2013-06-12 01:42:00,78.6,68.8,29.74,ESE,112,0.0,0.9,73,0.00,,,0.00,WUHU21623XXSP,2013-06-12 06:42:00,
2013-06-12 01:47:00,78.4,69.0,29.73,SSE,157,0.0,0.0,73,0.00,,,0.00,WUHU21623XXSP,2013-06-12 06:47:00,
2013-06-12 01:52:00,78.4,69.0,29.73,South,180,0.0,0.0,73,0.00,,,0.00,WUHU21623XXSP,2013-06-12 06:52:00,
2013-06-12 01:57:00,78.4,69.0,29.73,SSW,202,0.0,0.0,73,0.00,,,0.00,WUHU21623XXSP,2013-06-12 06:57:00,
2013-06-12 02:02:00,78.1,68.9,29.73,SSE,157,0.9,1.8,73,0.00,,,0.00,WUHU21623XXSP,2013-06-12 07:02:00,
2013-06-12 02:07:00,78.1,68.7,29.73,South,180,1.3,1.8,73,0.00,,,0.00,WUHU21623XXSP,2013-06-12 07:07:00,
2013-06-12 02:12:00,77.9,68.5,29.73,SSE,157,2.0,2.0,74,0.00,,,0.00,WUHU21623XXSP,2013-06-12 07:12:00,
2013-06-12 02:17:00,77.9,68.9,29.72,South,180,5.4,5.4,74,0.00,,,0.00,WUHU21623XXSP,2013-06-12 07:17:00,
2013-06-12 02:22:00,77.9,68.9,29.72,SSE,157,5.1,5.4,74,0.00,,,0.00,WUHU21623XXSP,2013-06-12 07:22:00,
2013-06-12 02:27:00,77.9,68.9,29.73,SSW,202,5.1,5.4,74,0.00,,,0.00,WUHU21623XXSP,2013-06-12 07:27:00,
2013-06-12 02:32:00,77.9,69.3,29.72,SSE,157,2.0,5.1,75,0.00,,,0.00,WUHU21623XXSP,2013-06-12 07:32:00,
2013-06-12 02:37:00,77.9,69.3,29.72,WSW,247,2.7,8.3,75,0.00,,,0.00,WUHU21623XXSP,2013-06-12 07:37:00,
2013-06-12 02:42:00,77.9,69.3,29.72,SE,135,6.0,8.3,75,0.00,,,0.00,WUHU21623XXSP,2013-06-12 07:42:00,
2013-06-12 02:47:00,77.9,69.3,29.72,SE,135,2.2,6.9,75,0.00,,,0.00,WUHU21623XXSP,2013-06-12 07:47:00,
2013-06-12 02:52:00,77.9,69.3,29.72,SSE,157,2.5,6.9,75,0.00,,,0.00,WUHU21623XXSP,2013-06-12 07:52:00,
2013-06-12 02:57:00,77.7,69.5,29.72,SSE,157,4.3,4.3,76,0.00,,,0.00,WUHU21623XXSP,2013-06-12 07:57:00,
2013-06-12 03:02:00,77.7,69.5,29.72,SSE,157,8.7,8.7,76,0.00,,,0.00,WUHU21623XXSP,2013-06-12 08:02:00,
2013-06-12 03:07:00,77.7,69.5,29.72,SSE,157,3.6,8.7,76,0.00,,,0.00,WUHU21623XXSP,2013-06-12 08:07:00,
2013-06-12 03:12:00,77.7,69.5,29.72,SSE,157,6.0,6.0,76,0.00,,,0.00,WUHU21623XXSP,2013-06-12 08:12:00,
2013-06-12 03:17:00,77.5,69.3,29.72,SW,225,6.9,6.9,76,0.00,,,0.00,WUHU21623XXSP,2013-06-12 08:17:00,
2013-06-12 03:26:00,77.5,69.7,29.72,SSE,157,6.7,6.7,77,0.00,,,0.00,WUHU21623XXSP,2013-06-12 08:26:00,
2013-06-12 03:31:00,77.5,69.7,29.72,South,180,2.0,6.7,77,0.00,,,0.00,WUHU21623XXSP,2013-06-12 08:31:00,
2013-06-12 03:36:00,77.5,69.7,29.72,SW,225,5.1,6.0,77,0.00,,,0.00,WUHU21623XXSP,2013-06-12 08:36:00,
2013-06-12 03:41:00,77.5,69.7,29.72,SE,135,5.8,8.9,77,0.00,,,0.00,WUHU21623XXSP,2013-06-12 08:41:00,
2013-06-12 03:46:00,77.5,69.7,29.72,South,180,7.6,8.9,77,0.00,,,0.00,WUHU21623XXSP,2013-06-12 08:46:00,
2013-06-12 03:51:00,77.4,69.9,29.72,South,180,5.8,7.6,78,0.00,,,0.00,WUHU21623XXSP,2013-06-12 08:51:00,
2013-06-12 03:56:00,77.4,69.9,29.71,South,180,3.4,7.6,78,0.00,,,0.00,WUHU21623XXSP,2013-06-12 08:56:00,
2013-06-12 04:01:00,77.4,69.9,29.72,SSW,202,6.0,7.6,78,0.00,,,0.00,WUHU21623XXSP,2013-06-12 09:01:00,
2013-06-12 04:06:00,77.4,69.9,29.72,SSE,157,4.7,6.0,78,0.00,,,0.00,WUHU21623XXSP,2013-06-12 09:06:00,
2013-06-12 04:11:00,77.4,69.9,29.71,SSW,202,10.3,10.3,78,0.00,,,0.00,WUHU21623XXSP,2013-06-12 09:11:00,
2013-06-12 04:16:00,77.2,69.7,29.72,SE,135,6.0,10.3,78,0.00,,,0.00,WUHU21623XXSP,2013-06-12 09:16:00,
2013-06-12 04:21:00,77.2,69.7,29.72,SE,135,4.9,17.0,78,0.00,,,0.00,WUHU21623XXSP,2013-06-12 09:21:00,
2013-06-12 04:26:00,77.2,70.1,29.72,SW,225,5.1,17.0,79,0.00,,,0.00,WUHU21623XXSP,2013-06-12 09:26:00,
2013-06-12 04:31:00,77.2,70.1,29.72,SSW,202,11.4,11.4,79,0.00,,,0.00,WUHU21623XXSP,2013-06-12 09:31:00,
2013-06-12 04:36:00,77.0,70.0,29.72,SSW,202,5.6,11.9,79,0.00,,,0.00,WUHU21623XXSP,2013-06-12 09:36:00,
2013-06-12 04:41:00,77.0,70.0,29.72,SSW,202,10.3,11.9,79,0.00,,,0.00,WUHU21623XXSP,2013-06-12 09:41:00,
2013-06-12 04:46:00,77.0,70.0,29.72,South,180,11.9,11.9,79,0.00,,,0.00,WUHU21623XXSP,2013-06-12 09:46:00,
2013-06-12 04:51:00,76.8,69.8,29.73,South,180,4.9,11.9,79,0.00,,,0.00,WUHU21623XXSP,2013-06-12 09:51:00,
2013-06-12 04:56:00,76.8,69.8,29.73,SSW,202,4.7,8.7,79,0.00,,,0.00,WUHU21623XXSP,2013-06-12 09:56:00,
2013-06-12 05:01:00,76.8,69.8,29.73,SSW,202,5.1,5.8,79,0.00,,,0.00,WUHU21623XXSP,2013-06-12 10:01:00,
2013-06-12 05:06:00,76.8,69.8,29.73,South,180,5.6,6.9,79,0.00,,,0.00,WUHU21623XXSP,2013-06-12 10:06:00,
2013-06-12 05:11:00,76.8,69.8,29.72,South,180,6.0,6.9,79,0.00,,,0.00,WUHU21623XXSP,2013-06-12 10:11:00,
2013-06-12 05:16:00,76.8,69.8,29.72,South,180,4.9,6.3,79,0.00,,,0.00,WUHU21623XXSP,2013-06-12 10:16:00,
2013-06-12 05:21:00,76.8,69.8,29.73,SSW,202,4.7,4.9,79,0.00,,,0.00,WUHU21623XXSP,2013-06-12 10:21:00,
2013-06-12 05:26:00,76.8,69.8,29.72,SSE,157,3.1,4.7,79,0.00,,,0.00,WUHU21623XXSP,2013-06-12 10:26:00,
2013-06-12 05:31:00,76.8,69.8,29.72,South,180,8.3,8.3,79,0.00,,,0.00,WUHU21623XXSP,2013-06-12 10:31:00,
2013-06-12 05:36:00,76.6,70.0,29.72,SSW,202,3.1,8.5,80,0.00,,,0.00,WUHU21623XXSP,2013-06-12 10:36:00,
2013-06-12 05:41:00,76.6,69.6,29.72,SSE,157,4.7,8.5,79,0.00,,,0.00,WUHU21623XXSP,2013-06-12 10:41:00,
2013-06-12 05:46:00,76.6,69.6,29.72,SSE,157,5.8,5.8,79,0.00,,,0.00,WUHU21623XXSP,2013-06-12 10:46:00,
2013-06-12 05:51:00,76.8,69.8,29.72,SSE,157,1.8,5.8,79,0.00,,,0.00,WUHU21623XXSP,2013-06-12 10:51:00,
2013-06-12 05:56:00,76.6,69.6,29.72,SW,225,4.9,4.9,79,0.00,,,0.00,WUHU21623XXSP,2013-06-12 10:56:00,
2013-06-12 06:01:00,76.6,69.6,29.72,SSW,202,2.0,5.1,79,0.00,,,0.00,WUHU21623XXSP,2013-06-12 11:01:00,
2013-06-12 06:06:00,76.6,69.6,29.73,South,180,2.5,6.3,79,0.00,,,0.00,WUHU21623XXSP,2013-06-12 11:06:00,
2013-06-12 06:11:00,76.5,69.5,29.72,SSE,157,4.0,6.3,79,0.00,,,0.00,WUHU21623XXSP,2013-06-12 11:11:00,
2013-06-12 06:16:00,76.3,69.3,29.72,South,180,6.0,6.0,79,0.00,,,0.00,WUHU21623XXSP,2013-06-12 11:16:00,
2013-06-12 06:21:00,76.3,69.3,29.72,SSE,157,4.7,6.0,79,0.00,,,0.00,WUHU21623XXSP,2013-06-12 11:21:00,
2013-06-12 06:26:00,76.3,69.3,29.73,SE,135,0.0,6.0,79,0.00,,,0.00,WUHU21623XXSP,2013-06-12 11:26:00,
2013-06-12 06:31:00,76.3,69.3,29.72,WSW,247,1.1,2.5,79,0.00,,,0.00,WUHU21623XXSP,2013-06-12 11:31:00,
2013-06-12 06:36:00,76.1,69.1,29.72,South,180,1.8,2.5,79,0.00,,,0.00,WUHU21623XXSP,2013-06-12 11:36:00,
2013-06-12 06:41:00,76.1,69.1,29.72,South,180,0.7,2.5,79,0.00,,,0.00,WUHU21623XXSP,2013-06-12 11:41:00,
2013-06-12 06:46:00,75.9,69.1,29.72,SSE,157,1.3,1.8,79,0.00,,,0.00,WUHU21623XXSP,2013-06-12 11:46:00,
2013-06-12 06:51:00,76.1,69.1,29.72,South,180,4.3,4.3,79,0.00,,,0.00,WUHU21623XXSP,2013-06-12 11:51:00,
2013-06-12 06:56:00,76.1,69.5,29.72,South,180,2.9,4.3,80,0.00,,,0.00,WUHU21623XXSP,2013-06-12 11:56:00,
2013-06-12 07:01:00,76.3,69.7,29.72,SSE,157,3.8,4.3,80,0.00,,,0.00,WUHU21623XXSP,2013-06-12 12:01:00,
2013-06-12 07:06:00,76.3,69.7,29.73,SSE,157,3.8,4.0,80,0.00,,,0.00,WUHU21623XXSP,2013-06-12 12:06:00,
2013-06-12 07:11:00,76.3,69.9,29.73,SSE,157,4.0,4.0,80,0.00,,,0.00,WUHU21623XXSP,2013-06-12 12:11:00,
2013-06-12 07:16:00,76.5,69.9,29.73,ESE,112,3.4,6.5,80,0.00,,,0.00,WUHU21623XXSP,2013-06-12 12:16:00,
2013-06-12 07:21:00,76.3,70.0,29.73,SE,135,2.0,6.5,81,0.00,,,0.00,WUHU21623XXSP,2013-06-12 12:21:00,
2013-06-12 07:25:00,76.6,70.4,29.73,SSE,157,2.2,5.8,81,0.00,,,0.00,WUHU21623XXSP,2013-06-12 12:25:00,
2013-06-12 07:30:00,76.6,70.4,29.74,South,180,4.5,7.2,81,0.00,,,0.00,WUHU21623XXSP,2013-06-12 12:30:00,
2013-06-12 07:35:00,76.8,70.5,29.74,SSE,157,3.8,7.2,81,0.00,,,0.00,WUHU21623XXSP,2013-06-12 12:35:00,
2013-06-12 07:40:00,77.4,71.1,29.74,South,180,3.8,5.1,81,0.00,,,0.00,WUHU21623XXSP,2013-06-12 12:40:00,
2013-06-12 07:45:00,77.7,71.4,29.74,South,180,10.3,10.3,81,0.00,,,0.00,WUHU21623XXSP,2013-06-12 12:45:00,
2013-06-12 07:51:00,78.1,71.4,29.74,SSE,157,2.5,10.5,80,0.00,,,0.00,WUHU21623XXSP,2013-06-12 12:51:00,
2013-06-12 07:56:00,78.1,71.4,29.75,SE,135,6.3,10.5,80,0.00,,,0.00,WUHU21623XXSP,2013-06-12 12:56:00,
2013-06-12 08:01:00,78.1,71.4,29.75,SSE,157,6.3,6.3,79,0.00,,,0.00,WUHU21623XXSP,2013-06-12 13:01:00,
2013-06-12 08:06:00,78.1,71.0,29.75,South,180,10.1,10.1,79,0.00,,,0.00,WUHU21623XXSP,2013-06-12 13:06:00,
2013-06-12 08:11:00,77.9,70.8,29.75,South,180,8.3,10.1,79,0.00,,,0.00,WUHU21623XXSP,2013-06-12 13:11:00,
2013-06-12 08:15:00,78.1,71.4,29.75,SSE,157,3.8,10.1,80,0.00,,,0.00,WUHU21623XXSP,2013-06-12 13:15:00,
2013-06-12 08:21:00,78.6,71.6,29.75,South,180,6.7,9.2,79,0.00,,,0.00,WUHU21623XXSP,2013-06-12 13:21:00,
2013-06-12 08:25:00,79.0,71.9,29.75,SSW,202,8.1,9.2,79,0.00,,,0.00,WUHU21623XXSP,2013-06-12 13:25:00,
2013-06-12 08:31:00,79.3,72.1,29.76,South,180,4.3,8.1,79,0.00,,,0.00,WUHU21623XXSP,2013-06-12 13:31:00,
2013-06-12 08:36:00,79.7,72.2,29.76,SSW,202,11.0,11.0,78,0.00,,,0.00,WUHU21623XXSP,2013-06-12 13:36:00,
2013-06-12 08:41:00,80.2,72.6,29.76,SE,135,0.0,11.0,78,0.00,,,0.00,WUHU21623XXSP,2013-06-12 13:41:00,
2013-06-12 08:46:00,80.4,72.6,29.76,SSE,157,6.3,6.3,77,0.00,,,0.00,WUHU21623XXSP,2013-06-12 13:46:00,
2013-06-12 08:51:00,80.6,72.4,29.76,SSW,202,3.6,11.0,76,0.00,,,0.00,WUHU21623XXSP,2013-06-12 13:51:00,
2013-06-12 08:56:00,80.6,72.4,29.76,SSE,157,6.0,11.0,76,0.00,,,0.00,WUHU21623XXSP,2013-06-12 13:56:00,
2013-06-12 09:01:00,80.6,72.4,29.76,SSE,157,0.0,6.0,76,0.00,,,0.00,WUHU21623XXSP,2013-06-12 14:01:00,
2013-06-12 09:06:00,81.1,72.5,29.77,SE,135,14.5,14.5,75,0.00,,,0.00,WUHU21623XXSP,2013-06-12 14:06:00,
2013-06-12 09:11:00,81.1,72.5,29.77,SSE,157,4.9,14.5,75,0.00,,,0.00,WUHU21623XXSP,2013-06-12 14:11:00,
2013-06-12 09:16:00,81.5,72.4,29.77,SSW,202,11.9,14.3,74,0.00,,,0.00,WUHU21623XXSP,2013-06-12 14:16:00,
2013-06-12 09:21:00,82.0,72.9,29.77,South,180,9.2,11.9,74,0.00,,,0.00,WUHU21623XXSP,2013-06-12 14:21:00,
2013-06-12 09:26:00,82.2,72.7,29.77,SSE,157,7.6,9.6,73,0.00,,,0.00,WUHU21623XXSP,2013-06-12 14:26:00,
2013-06-12 09:31:00,82.2,72.7,29.77,SSE,157,7.6,7.6,73,0.00,,,0.00,WUHU21623XXSP,2013-06-12 14:31:00,
2013-06-12 09:36:00,82.2,72.7,29.77,SSE,157,7.6,7.6,73,0.00,,,0.00,WUHU21623XXSP,2013-06-12 14:36:00,
2013-06-12 10:27:00,88.0,74.3,29.77,South,180,8.3,8.3,64,0.00,,,0.00,WUHU21623XXSP,2013-06-12 15:27:00,
2013-06-12 10:32:00,88.3,74.2,29.76,ESE,112,4.9,15.9,63,0.00,,,0.00,WUHU21623XXSP,2013-06-12 15:32:00,
2013-06-12 10:37:00,88.7,74.5,29.76,SSE,157,10.5,15.9,63,0.00,,,0.00,WUHU21623XXSP,2013-06-12 15:37:00,
2013-06-12 10:42:00,88.9,74.2,29.76,SSE,157,2.2,13.2,62,0.00,,,0.00,WUHU21623XXSP,2013-06-12 15:42:00,
2013-06-12 10:47:00,88.9,74.2,29.76,South,180,8.9,13.2,62,0.00,,,0.00,WUHU21623XXSP,2013-06-12 15:47:00,
2013-06-12 10:52:00,88.5,73.9,29.76,SW,225,6.3,11.0,62,0.00,,,0.00,WUHU21623XXSP,2013-06-12 15:52:00,
2013-06-12 10:57:00,87.6,72.9,29.76,South,180,6.7,11.0,62,0.00,,,0.00,WUHU21623XXSP,2013-06-12 15:57:00,
2013-06-12 11:02:00,87.6,73.0,29.76,SSE,157,1.8,6.7,62,0.00,,,0.00,WUHU21623XXSP,2013-06-12 16:02:00,
2013-06-12 11:07:00,86.9,72.8,29.76,SW,225,3.8,3.8,63,0.00,,,0.00,WUHU21623XXSP,2013-06-12 16:07:00,
2013-06-12 11:12:00,86.7,73.1,29.76,South,180,5.6,5.6,64,0.00,,,0.00,WUHU21623XXSP,2013-06-12 16:12:00,
2013-06-12 11:17:00,86.7,73.1,29.76,SSW,202,8.9,12.3,64,0.00,,,0.00,WUHU21623XXSP,2013-06-12 16:17:00,
2013-06-12 11:22:00,86.9,73.7,29.76,WSW,247,3.4,12.3,65,0.00,,,0.00,WUHU21623XXSP,2013-06-12 16:22:00,
2013-06-12 11:27:00,87.1,73.4,29.76,SSW,202,4.3,11.0,64,0.00,,,0.00,WUHU21623XXSP,2013-06-12 16:27:00,
2013-06-12 11:32:00,87.1,73.9,29.76,SSW,202,8.5,11.0,65,0.00,,,0.00,WUHU21623XXSP,2013-06-12 16:32:00,
2013-06-12 11:37:00,87.1,73.4,29.76,SW,225,5.8,8.5,64,0.00,,,0.00,WUHU21623XXSP,2013-06-12 16:37:00,
2013-06-12 11:42:00,88.0,74.7,29.76,WSW,247,1.8,6.0,65,0.00,,,0.00,WUHU21623XXSP,2013-06-12 16:42:00,
2013-06-12 11:47:00,88.7,74.6,29.76,South,180,7.2,7.2,64,0.00,,,0.00,WUHU21623XXSP,2013-06-12 16:47:00,
2013-06-12 11:52:00,89.4,75.6,29.76,South,180,7.2,7.2,64,0.00,,,0.00,WUHU21623XXSP,2013-06-12 16:52:00,
2013-06-12 11:57:00,89.8,74.6,29.77,SSW,202,5.1,7.4,61,0.00,,,0.00,WUHU21623XXSP,2013-06-12 16:57:00,
2013-06-12 12:02:00,89.8,74.6,29.76,South,180,5.4,7.4,61,0.00,,,0.00,WUHU21623XXSP,2013-06-12 17:02:00,
2013-06-12 12:07:00,89.8,74.1,29.77,SW,225,14.5,14.5,60,0.00,,,0.00,WUHU21623XXSP,2013-06-12 17:07:00,
2013-06-12 12:12:00,89.8,74.6,29.76,SW,225,8.5,14.5,61,0.00,,,0.00,WUHU21623XXSP,2013-06-12 17:12:00,
2013-06-12 12:17:00,90.1,74.7,29.77,SSE,157,6.5,13.4,60,0.00,,,0.00,WUHU21623XXSP,2013-06-12 17:17:00,
2013-06-12 12:22:00,90.5,74.0,29.77,SSE,157,6.5,6.5,59,0.00,,,0.00,WUHU21623XXSP,2013-06-12 17:22:00,
2013-06-12 12:27:00,90.5,74.2,29.77,SSE,157,4.3,6.5,59,0.00,,,0.00,WUHU21623XXSP,2013-06-12 17:27:00,
2013-06-12 12:32:00,90.5,74.2,29.77,SSE,157,4.9,6.9,59,0.00,,,0.00,WUHU21623XXSP,2013-06-12 17:32:00,
2013-06-12 12:37:00,90.7,74.4,29.77,SSW,202,7.2,7.2,59,0.00,,,0.00,WUHU21623XXSP,2013-06-12 17:37:00,
2013-06-12 12:42:00,91.2,74.3,29.76,SE,135,6.7,7.4,58,0.00,,,0.00,WUHU21623XXSP,2013-06-12 17:42:00,
2013-06-12 12:47:00,91.8,74.3,29.76,SSW,202,8.1,8.1,57,0.00,,,0.00,WUHU21623XXSP,2013-06-12 17:47:00,
2013-06-12 12:52:00,91.9,74.5,29.76,SSW,202,9.2,9.2,57,0.00,,,0.00,WUHU21623XXSP,2013-06-12 17:52:00,
2013-06-12 12:57:00,92.1,74.1,29.76,SW,225,4.0,9.2,56,0.00,,,0.00,WUHU21623XXSP,2013-06-12 17:57:00,
2013-06-12 13:02:00,92.5,74.4,29.76,SSE,157,13.0,13.0,56,0.00,,,0.00,WUHU21623XXSP,2013-06-12 18:02:00,
2013-06-12 13:07:00,92.8,74.8,29.76,South,180,11.2,13.0,56,0.00,,,0.00,WUHU21623XXSP,2013-06-12 18:07:00,
2013-06-12 13:12:00,93.2,74.0,29.76,SE,135,6.0,13.0,54,0.00,,,0.00,WUHU21623XXSP,2013-06-12 18:12:00,
2013-06-12 13:17:00,93.4,74.2,29.76,SSE,157,7.2,9.6,54,0.00,,,0.00,WUHU21623XXSP,2013-06-12 18:17:00,
2013-06-12 13:22:00,93.7,74.5,29.76,SSE,157,8.7,14.3,54,0.00,,,0.00,WUHU21623XXSP,2013-06-12 18:22:00,
2013-06-12 13:27:00,94.1,74.1,29.76,WSW,247,5.6,14.3,53,0.00,,,0.00,WUHU21623XXSP,2013-06-12 18:27:00,
2013-06-12 13:32:00,94.3,74.5,29.76,SSW,202,8.7,8.7,53,0.00,,,0.00,WUHU21623XXSP,2013-06-12 18:32:00,
2013-06-12 13:37:00,94.3,73.9,29.76,SSW,202,8.7,8.7,52,0.00,,,0.00,WUHU21623XXSP,2013-06-12 18:37:00,
2013-06-12 13:42:00,94.3,73.9,29.76,SE,135,2.5,8.7,52,0.00,,,0.00,WUHU21623XXSP,2013-06-12 18:42:00,
2013-06-12 13:47:00,94.3,74.5,29.75,SSE,157,7.2,8.7,53,0.00,,,0.00,WUHU21623XXSP,2013-06-12 18:47:00,
2013-06-12 13:52:00,94.5,74.7,29.75,SSW,202,11.6,11.6,53,0.00,,,0.00,WUHU21623XXSP,2013-06-12 18:52:00,
2013-06-12 13:57:00,94.6,74.3,29.75,South,180,2.7,11.6,52,0.00,,,0.00,WUHU21623XXSP,2013-06-12 18:57:00,
2013-06-12 14:02:00,94.6,74.3,29.75,SE,135,3.8,11.6,52,0.00,,,0.00,WUHU21623XXSP,2013-06-12 19:02:00,
2013-06-12 14:07:00,94.8,73.9,29.75,SW,225,3.4,7.6,51,0.00,,,0.00,WUHU21623XXSP,2013-06-12 19:07:00,
2013-06-12 14:12:00,95.0,74.1,29.74,SSE,157,4.5,6.3,51,0.00,,,0.00,WUHU21623XXSP,2013-06-12 19:12:00,
2013-06-12 14:17:00,95.2,74.3,29.74,SSE,157,4.3,6.3,51,0.00,,,0.00,WUHU21623XXSP,2013-06-12 19:17:00,
2013-06-12 14:22:00,95.5,74.6,29.74,SE,135,13.9,13.9,51,0.00,,,0.00,WUHU21623XXSP,2013-06-12 19:22:00,
2013-06-12 14:27:00,95.9,74.2,29.74,SSE,157,5.4,13.9,50,0.00,,,0.00,WUHU21623XXSP,2013-06-12 19:27:00,
2013-06-12 14:32:00,96.1,74.6,29.73,SE,135,4.5,11.0,50,0.00,,,0.00,WUHU21623XXSP,2013-06-12 19:32:00,
2013-06-12 14:37:00,95.9,74.6,29.74,West,270,3.6,4.9,50,0.00,,,0.00,WUHU21623XXSP,2013-06-12 19:37:00,
2013-06-12 14:42:00,96.1,73.9,29.73,SSW,202,8.3,8.3,49,0.00,,,0.00,WUHU21623XXSP,2013-06-12 19:42:00,
2013-06-12 14:47:00,96.1,73.9,29.73,SSE,157,5.6,10.1,49,0.00,,,0.00,WUHU21623XXSP,2013-06-12 19:47:00,
2013-06-12 14:52:00,95.5,73.4,29.73,South,180,8.1,10.1,49,0.00,,,0.00,WUHU21623XXSP,2013-06-12 19:52:00,
2013-06-12 14:57:00,95.4,73.2,29.73,South,180,4.7,8.1,49,0.00,,,0.00,WUHU21623XXSP,2013-06-12 19:57:00,
2013-06-12 15:02:00,95.4,73.2,29.72,SE,135,8.3,8.3,49,0.00,,,0.00,WUHU21623XXSP,2013-06-12 20:02:00,
2013-06-12 15:07:00,95.2,73.1,29.72,SSE,157,1.8,8.3,49,0.00,,,0.00,WUHU21623XXSP,2013-06-12 20:07:00,
2013-06-12 15:12:00,94.8,72.9,29.72,SSE,157,8.9,8.9,50,0.00,,,0.00,WUHU21623XXSP,2013-06-12 20:12:00,
2013-06-12 15:17:00,95.2,73.1,29.72,SW,225,9.2,10.1,49,0.00,,,0.00,WUHU21623XXSP,2013-06-12 20:17:00,
2013-06-12 15:22:00,95.5,73.4,29.72,South,180,4.3,10.1,49,0.00,,,0.00,WUHU21623XXSP,2013-06-12 20:22:00,
2013-06-12 15:27:00,95.7,72.9,29.72,South,180,11.9,11.9,48,0.00,,,0.00,WUHU21623XXSP,2013-06-12 20:27:00,
2013-06-12 15:32:00,95.9,73.1,29.71,SE,135,7.8,11.9,48,0.00,,,0.00,WUHU21623XXSP,2013-06-12 20:32:00,
2013-06-12 15:37:00,96.1,73.2,29.71,SSE,157,7.6,7.8,48,0.00,,,0.00,WUHU21623XXSP,2013-06-12 20:37:00,
2013-06-12 15:42:00,96.3,73.4,29.71,South,180,5.6,9.2,48,0.00,,,0.00,WUHU21623XXSP,2013-06-12 20:42:00,
2013-06-12 15:47:00,96.4,73.5,29.71,South,180,5.6,9.2,48,0.00,,,0.00,WUHU21623XXSP,2013-06-12 20:47:00,
2013-06-12 15:52:00,96.6,73.0,29.71,SSW,202,4.0,5.6,47,0.00,,,0.00,WUHU21623XXSP,2013-06-12 20:52:00,
2013-06-12 15:57:00,96.8,73.2,29.71,SSW,202,2.2,11.6,47,0.00,,,0.00,WUHU21623XXSP,2013-06-12 20:57:00,
2013-06-12 16:02:00,97.0,73.4,29.71,ESE,112,6.9,11.6,47,0.00,,,0.00,WUHU21623XXSP,2013-06-12 21:02:00,
2013-06-12 16:07:00,97.0,73.4,29.70,ESE,112,3.1,6.9,47,0.00,,,0.00,WUHU21623XXSP,2013-06-12 21:07:00,
2013-06-12 16:12:00,96.4,72.9,29.70,ESE,112,2.5,6.9,47,0.00,,,0.00,WUHU21623XXSP,2013-06-12 21:12:00,
2013-06-12 16:17:00,96.1,72.6,29.70,SSE,157,4.7,5.8,47,0.00,,,0.00,WUHU21623XXSP,2013-06-12 21:17:00,
2013-06-12 16:22:00,95.5,72.7,29.70,SSE,157,7.6,7.6,48,0.00,,,0.00,WUHU21623XXSP,2013-06-12 21:22:00,
2013-06-12 16:27:00,95.4,72.6,29.69,SE,135,0.0,7.6,48,0.00,,,0.00,WUHU21623XXSP,2013-06-12 21:27:00,
2013-06-12 16:32:00,95.2,72.4,29.69,South,180,7.8,7.8,48,0.00,,,0.00,WUHU21623XXSP,2013-06-12 21:32:00,
2013-06-12 16:37:00,95.0,72.2,29.69,South,180,6.7,7.8,48,0.00,,,0.00,WUHU21623XXSP,2013-06-12 21:37:00,
2013-06-12 16:42:00,95.2,73.1,29.69,SSE,157,5.4,6.7,49,0.00,,,0.00,WUHU21623XXSP,2013-06-12 21:42:00,
2013-06-12 16:47:00,95.4,72.6,29.68,ESE,112,11.0,11.0,48,0.00,,,0.00,WUHU21623XXSP,2013-06-12 21:47:00,
2013-06-12 16:52:00,95.4,72.6,29.68,SE,135,6.7,11.0,48,0.00,,,0.00,WUHU21623XXSP,2013-06-12 21:52:00,
2013-06-12 16:57:00,95.7,72.9,29.68,SSE,157,10.3,10.3,48,0.00,,,0.00,WUHU21623XXSP,2013-06-12 21:57:00,
2013-06-12 17:02:00,95.9,73.1,29.68,ESE,112,2.5,10.3,48,0.00,,,0.00,WUHU21623XXSP,2013-06-12 22:02:00,
2013-06-12 17:07:00,96.1,72.6,29.67,South,180,1.6,3.6,47,0.00,,,0.00,WUHU21623XXSP,2013-06-12 22:07:00,
2013-06-12 17:12:00,96.1,72.6,29.67,SSE,157,3.1,3.4,47,0.00,,,0.00,WUHU21623XXSP,2013-06-12 22:12:00,
2013-06-12 17:17:00,96.3,73.2,29.67,SE,135,3.6,3.6,47,0.00,,,0.00,WUHU21623XXSP,2013-06-12 22:17:00,
2013-06-12 17:22:00,95.9,72.6,29.67,SSE,157,4.5,4.5,47,0.00,,,0.00,WUHU21623XXSP,2013-06-12 22:22:00,
2013-06-12 17:27:00,95.5,72.7,29.67,SSW,202,2.7,4.5,48,0.00,,,0.00,WUHU21623XXSP,2013-06-12 22:27:00,
2013-06-12 17:32:00,95.4,72.6,29.67,South,180,1.6,4.5,48,0.00,,,0.00,WUHU21623XXSP,2013-06-12 22:32:00,
2013-06-12 17:37:00,95.4,72.6,29.67,SE,135,3.1,3.1,48,0.00,,,0.00,WUHU21623XXSP,2013-06-12 22:37:00,
2013-06-12 17:42:00,95.4,72.6,29.66,South,180,4.0,5.6,48,0.00,,,0.00,WUHU21623XXSP,2013-06-12 22:42:00,
2013-06-12 17:47:00,95.5,72.1,29.67,SSE,157,5.1,5.6,47,0.00,,,0.00,WUHU21623XXSP,2013-06-12 22:47:00,
2013-06-12 17:52:00,95.7,72.9,29.67,SSE,157,9.8,9.8,48,0.00,,,0.00,WUHU21623XXSP,2013-06-12 22:52:00,
2013-06-12 17:57:00,95.5,74.1,29.67,SSE,157,17.7,17.7,50,0.00,,,0.00,WUHU21623XXSP,2013-06-12 22:57:00,
2013-06-12 18:02:00,95.4,73.9,29.67,SE,135,3.1,17.7,50,0.00,,,0.00,WUHU21623XXSP,2013-06-12 23:02:00,
2013-06-12 18:07:00,94.8,74.3,29.67,SE,135,12.1,12.1,51,0.00,,,0.00,WUHU21623XXSP,2013-06-12 23:07:00,
2013-06-12 18:12:00,94.3,73.4,29.67,ESE,112,5.8,12.1,51,0.00,,,0.00,WUHU21623XXSP,2013-06-12 23:12:00,
2013-06-12 18:17:00,94.1,73.2,29.67,South,180,2.2,12.1,51,0.00,,,0.00,WUHU21623XXSP,2013-06-12 23:17:00,
2013-06-12 18:22:00,93.9,73.0,29.67,South,180,12.1,12.1,51,0.00,,,0.00,WUHU21623XXSP,2013-06-12 23:22:00,
2013-06-12 18:27:00,93.6,72.9,29.67,South,180,6.7,12.1,51,0.00,,,0.00,WUHU21623XXSP,2013-06-12 23:27:00,
2013-06-12 18:32:00,93.4,73.1,29.68,SSE,157,1.8,6.7,52,0.00,,,0.00,WUHU21623XXSP,2013-06-12 23:32:00,
2013-06-12 18:37:00,93.4,73.6,29.68,SSE,157,10.7,10.7,53,0.00,,,0.00,WUHU21623XXSP,2013-06-12 23:37:00,
2013-06-12 18:42:00,93.2,73.5,29.68,SSE,157,13.4,13.4,53,0.00,,,0.00,WUHU21623XXSP,2013-06-12 23:42:00,
2013-06-12 18:47:00,93.0,73.3,29.68,South,180,6.5,13.9,53,0.00,,,0.00,WUHU21623XXSP,2013-06-12 23:47:00,
2013-06-12 18:52:00,93.0,73.3,29.67,SW,225,4.9,13.9,53,0.00,,,0.00,WUHU21623XXSP,2013-06-12 23:52:00,
2013-06-12 18:57:00,92.8,73.7,29.67,ESE,112,3.4,9.6,54,0.00,,,0.00,WUHU21623XXSP,2013-06-12 23:57:00,
2013-06-12 19:02:00,92.8,73.7,29.68,ESE,112,1.8,9.6,54,0.00,,,0.00,WUHU21623XXSP,2013-06-13 00:02:00,
2013-06-12 19:07:00,92.8,73.7,29.68,SE,135,4.9,10.7,54,0.00,,,0.00,WUHU21623XXSP,2013-06-13 00:07:00,
2013-06-12 19:12:00,92.5,73.3,29.68,SE,135,5.4,10.7,54,0.00,,,0.00,WUHU21623XXSP,2013-06-13 00:12:00,
2013-06-12 19:17:00,92.5,73.3,29.68,ESE,112,4.9,7.8,54,0.00,,,0.00,WUHU21623XXSP,2013-06-13 00:17:00,
2013-06-12 19:22:00,92.3,73.2,29.68,ESE,112,3.8,7.8,54,0.00,,,0.00,WUHU21623XXSP,2013-06-13 00:22:00,
2013-06-12 19:27:00,91.9,72.8,29.69,SSE,157,7.8,7.8,54,0.00,,,0.00,WUHU21623XXSP,2013-06-13 00:27:00,
2013-06-12 19:32:00,91.6,72.5,29.68,SSE,157,3.6,7.8,54,0.00,,,0.00,WUHU21623XXSP,2013-06-13 00:32:00,
2013-06-12 19:37:00,91.4,72.9,29.68,SSE,157,4.9,4.9,55,0.00,,,0.00,WUHU21623XXSP,2013-06-13 00:37:00,
2013-06-12 19:42:00,91.0,72.5,29.68,SSE,157,3.6,5.8,55,0.00,,,0.00,WUHU21623XXSP,2013-06-13 00:42:00,
2013-06-12 19:47:00,90.7,72.2,29.68,SSE,157,4.0,15.0,55,0.00,,,0.00,WUHU21623XXSP,2013-06-13 00:47:00,
2013-06-12 19:52:00,90.1,72.3,29.69,SSE,157,6.7,15.0,56,0.00,,,0.00,WUHU21623XXSP,2013-06-13 00:52:00,
2013-06-12 19:57:00,90.0,72.1,29.69,SE,135,4.5,9.2,56,0.00,,,0.00,WUHU21623XXSP,2013-06-13 00:57:00,
2013-06-12 20:02:00,89.8,71.9,29.69,SSE,157,7.4,8.3,56,0.00,,,0.00,WUHU21623XXSP,2013-06-13 01:02:00,
2013-06-12 20:07:00,89.4,71.6,29.69,SE,135,2.5,8.3,56,0.00,,,0.00,WUHU21623XXSP,2013-06-13 01:07:00,
2013-06-12 20:12:00,89.2,72.0,29.69,SSE,157,7.2,7.2,57,0.00,,,0.00,WUHU21623XXSP,2013-06-13 01:12:00,
2013-06-12 20:17:00,89.2,72.0,29.69,SSE,157,4.0,7.2,57,0.00,,,0.00,WUHU21623XXSP,2013-06-13 01:17:00,
2013-06-12 20:22:00,88.7,71.5,29.69,SSE,157,7.4,7.4,57,0.00,,,0.00,WUHU21623XXSP,2013-06-13 01:22:00,
2013-06-12 20:27:00,88.5,71.3,29.69,South,180,8.5,8.5,57,0.00,,,0.00,WUHU21623XXSP,2013-06-13 01:27:00,
2013-06-12 20:32:00,88.2,71.6,29.69,SSE,157,3.4,10.5,58,0.00,,,0.00,WUHU21623XXSP,2013-06-13 01:32:00,
2013-06-12 20:37:00,87.8,71.2,29.69,SSE,157,3.1,10.5,58,0.00,,,0.00,WUHU21623XXSP,2013-06-13 01:37:00,
2013-06-12 20:42:00,87.6,71.1,29.69,ESE,112,1.8,7.6,58,0.00,,,0.00,WUHU21623XXSP,2013-06-13 01:42:00,
2013-06-12 20:47:00,87.4,70.9,29.69,SSE,157,5.1,6.7,58,0.00,,,0.00,WUHU21623XXSP,2013-06-13 01:47:00,
2013-06-12 20:52:00,86.9,70.9,29.69,SE,135,4.3,6.7,59,0.00,,,0.00,WUHU21623XXSP,2013-06-13 01:52:00,
2013-06-12 20:57:00,86.7,70.7,29.69,ESE,112,3.4,7.6,59,0.00,,,0.00,WUHU21623XXSP,2013-06-13 01:57:00,
2013-06-12 21:02:00,86.5,70.5,29.69,SE,135,4.0,7.6,59,0.00,,,0.00,WUHU21623XXSP,2013-06-13 02:02:00,
2013-06-12 21:07:00,86.2,70.2,29.69,South,180,5.6,6.7,59,0.00,,,0.00,WUHU21623XXSP,2013-06-13 02:07:00,
2013-06-12 21:12:00,86.2,70.2,29.70,SSE,157,5.4,5.6,59,0.00,,,0.00,WUHU21623XXSP,2013-06-13 02:12:00,
2013-06-12 21:17:00,86.2,70.2,29.69,SSE,157,3.8,5.4,59,0.00,,,0.00,WUHU21623XXSP,2013-06-13 02:17:00,
2013-06-12 21:22:00,85.8,70.4,29.69,SE,135,0.0,3.8,60,0.00,,,0.00,WUHU21623XXSP,2013-06-13 02:22:00,
2013-06-12 21:27:00,85.6,70.2,29.70,SSE,157,3.6,6.0,60,0.00,,,0.00,WUHU21623XXSP,2013-06-13 02:27:00,
2013-06-12 21:32:00,85.6,70.2,29.70,SSE,157,5.4,6.0,60,0.00,,,0.00,WUHU21623XXSP,2013-06-13 02:32:00,
2013-06-12 21:37:00,85.3,69.9,29.70,SW,225,2.0,5.4,60,0.00,,,0.00,WUHU21623XXSP,2013-06-13 02:37:00,
2013-06-12 21:42:00,85.3,70.3,29.70,ESE,112,1.6,3.4,61,0.00,,,0.00,WUHU21623XXSP,2013-06-13 02:42:00,
2013-06-12 21:47:00,85.1,70.2,29.70,SSE,157,3.8,3.8,61,0.00,,,0.00,WUHU21623XXSP,2013-06-13 02:47:00,
2013-06-12 21:52:00,84.9,70.0,29.70,SE,135,3.1,6.3,61,0.00,,,0.00,WUHU21623XXSP,2013-06-13 02:52:00,
2013-06-12 21:57:00,84.7,69.8,29.70,SSE,157,1.8,6.3,61,0.00,,,0.00,WUHU21623XXSP,2013-06-13 02:57:00,
2013-06-12 22:02:00,84.6,70.3,29.71,South,180,2.9,2.9,62,0.00,,,0.00,WUHU21623XXSP,2013-06-13 03:02:00,
2013-06-12 22:07:00,84.4,70.0,29.71,SSW,202,3.8,3.8,62,0.00,,,0.00,WUHU21623XXSP,2013-06-13 03:07:00,
2013-06-12 22:12:00,84.4,70.0,29.72,South,180,3.6,5.8,62,0.00,,,0.00,WUHU21623XXSP,2013-06-13 03:12:00,
2013-06-12 22:17:00,84.2,70.3,29.71,South,180,4.0,5.8,63,0.00,,,0.00,WUHU21623XXSP,2013-06-13 03:17:00,
2013-06-12 22:22:00,84.0,70.1,29.72,SE,135,3.1,4.7,63,0.00,,,0.00,WUHU21623XXSP,2013-06-13 03:22:00,
2013-06-12 22:27:00,83.8,69.9,29.72,SE,135,2.5,4.7,63,0.00,,,0.00,WUHU21623XXSP,2013-06-13 03:27:00,
2013-06-12 22:32:00,83.8,69.9,29.72,SSE,157,3.6,3.6,63,0.00,,,0.00,WUHU21623XXSP,2013-06-13 03:32:00,
2013-06-12 22:37:00,83.7,70.2,29.72,SSE,157,3.8,3.8,64,0.00,,,0.00,WUHU21623XXSP,2013-06-13 03:37:00,
2013-06-12 22:42:00,83.5,70.0,29.72,SSE,157,2.7,3.8,64,0.00,,,0.00,WUHU21623XXSP,2013-06-13 03:42:00,
2013-06-12 22:47:00,83.5,70.0,29.72,SSE,157,3.1,3.1,64,0.00,,,0.00,WUHU21623XXSP,2013-06-13 03:47:00,
2013-06-12 22:52:00,83.3,69.8,29.72,SSE,157,3.1,3.1,64,0.00,,,0.00,WUHU21623XXSP,2013-06-13 03:52:00,
2013-06-12 22:57:00,83.1,69.6,29.72,SSE,157,6.0,6.0,64,0.00,,,0.00,WUHU21623XXSP,2013-06-13 03:57:00,
2013-06-12 23:01:00,83.1,69.6,29.72,SSW,202,4.7,6.0,64,0.00,,,0.00,WUHU21623XXSP,2013-06-13 04:01:00,
2013-06-12 23:06:00,82.9,69.9,29.72,South,180,2.5,4.7,65,0.00,,,0.00,WUHU21623XXSP,2013-06-13 04:06:00,
2013-06-12 23:11:00,82.8,69.7,29.72,South,180,6.0,6.0,65,0.00,,,0.00,WUHU21623XXSP,2013-06-13 04:11:00,
2013-06-12 23:16:00,82.8,69.7,29.72,South,180,3.1,6.0,65,0.00,,,0.00,WUHU21623XXSP,2013-06-13 04:16:00,
2013-06-12 23:21:00,82.6,69.5,29.72,South,180,4.9,6.0,65,0.00,,,0.00,WUHU21623XXSP,2013-06-13 04:21:00,
2013-06-12 23:26:00,82.6,70.0,29.72,SE,135,3.8,6.0,66,0.00,,,0.00,WUHU21623XXSP,2013-06-13 04:26:00,
2013-06-12 23:31:00,82.4,69.8,29.72,South,180,4.7,4.7,66,0.00,,,0.00,WUHU21623XXSP,2013-06-13 04:31:00,
2013-06-12 23:36:00,82.2,69.6,29.72,SE,135,4.0,4.7,67,0.00,,,0.00,WUHU21623XXSP,2013-06-13 04:36:00,
2013-06-12 23:41:00,82.2,70.1,29.72,South,180,0.0,4.0,67,0.00,,,0.00,WUHU21623XXSP,2013-06-13 04:41:00,
2013-06-12 23:46:00,82.2,70.1,29.72,SSE,157,3.1,4.7,67,0.00,,,0.00,WUHU21623XXSP,2013-06-13 04:46:00,
2013-06-12 23:51:00,82.0,69.9,29.72,SE,135,1.6,5.4,67,0.00,,,0.00,WUHU21623XXSP,2013-06-13 04:51:00,
2013-06-12 23:56:00,81.9,70.2,29.72,South,180,1.6,5.4,68,0.00,,,0.00,WUHU21623XXSP,2013-06-13 04:56:00,